TA2EE-10 Weather Reports


Display with metric or nautical units.
time (UTC)temp
F
wind
direction
speed
MPH
gust
MPH
rain 1hr
in
rain 24hr
in
rain mn
in
humidity
%
barometer
mb
20260504045337 57 0 0.0 0.0 0.00 0.00 0.00 49 904.0
20260504041815 58 0 0.0 0.0 0.00 0.00 0.00 48 904.0
20260504041708 58 0 0.0 0.0 0.00 0.00 0.00 48 904.0
20260504034145 59 0 0.0 0.0 0.00 0.00 0.00 47 904.0
20260504030623 59 0 0.0 0.0 0.00 0.00 0.00 48 903.0
20260504023101 59 0 0.0 0.0 0.00 0.00 0.00 48 903.0
20260504015538 60 0 0.0 0.0 0.00 0.00 0.00 47 903.0
20260504012016 60 0 0.0 0.0 0.00 0.00 0.00 47 903.0
20260504004454 60 0 0.0 0.0 0.00 0.00 0.00 46 903.0
20260504000932 60 0 0.0 0.0 0.00 0.00 0.00 44 903.0
20260503233409 60 0 0.0 0.0 0.00 0.00 0.00 43 903.0
20260503225848 60 0 0.0 0.0 0.00 0.00 0.00 44 902.0
20260503222326 61 0 0.0 0.0 0.00 0.00 0.00 44 902.0
20260503214804 61 0 0.0 0.0 0.00 0.00 0.00 44 902.0
20260503211241 62 0 0.0 0.0 0.00 0.00 0.00 42 902.0
20260503203719 63 0 0.0 0.0 0.00 0.00 0.00 43 902.0
20260503200157 63 0 0.0 0.0 0.00 0.00 0.00 43 902.0
20260503192634 62 0 0.0 0.0 0.00 0.00 0.00 45 902.0
20260503185112 65 0 0.0 0.0 0.00 0.00 0.00 42 902.0
20260503181550 67 0 0.0 0.0 0.00 0.00 0.00 40 902.0
20260503174028 67 0 0.0 0.0 0.00 0.00 0.00 40 902.0
20260503170506 65 0 0.0 0.0 0.00 0.00 0.00 41 902.0